Regional Weather Roundup
Issued by NWS

Home | Current Version | Previous Version | Text Only | Print | Product List | Glossary Off
Versions: 1 2 3 4 5 6 7 8 9 10 11 12 13 14 15 16 17 18 19 20 21 22 23 24 25 26 27 28 29 30 31 32 33 34 35 36 37 38 39 40 41 42 43 44 45 46 47 48 49 50

000
ASUS43 KMKX 232124
RWRWI

WISCONSIN REGIONAL WEATHER ROUNDUP
NATIONAL WEATHER SERVICE MILWAUKEE/SULLIVAN WI
400 PM CDT SAT MAY 23 2015

NOTE: "FAIR" INDICATES FEW OR NO CLOUDS BELOW 12,000 FEET WITH NO
SIGNIFICANT WEATHER AND/OR OBSTRUCTIONS TO VISIBILITY.

WIZ001-002-006>008-014>016-023>028-232200-
NORTHWEST WISCONSIN

CITY           SKY/WX    TMP DP  RH WIND       PRES   REMARKS
SUPERIOR ARPT  MOSUNNY   78  39  24 SW9G17    30.14F
ASHLAND        SUNNY     80  35  19 VRB6      30.14F
HAYWARD        MOSUNNY   73  41  31 SW14G21   30.20F
SIREN          LGT RAIN  65  45  48 SW8       30.24R
CUMBERLAND     LGT RAIN  63  46  55 N6        30.22F
RICE LAKE      CLOUDY    68  38  33 N6        30.23F
CHETEK         CLOUDY    71  40  32 N3        30.21F
LADYSMITH      CLOUDY    70  42  35 SW5       30.23F
EAU CLAIRE     CLOUDY    73  39  29 SW5       30.20F
MENOMONIE      PTSUNNY   73  40  29 S6        30.20F
NEW RICHMOND   CLOUDY    71  38  29 NE6       30.21F
OSCEOLA        CLOUDY    65  49  55 N7        30.24F
$$

WIZ003>005-009-010-017-018-232200-
NORTH CENTRAL WISCONSIN

CITY           SKY/WX    TMP DP  RH WIND       PRES   REMARKS
MANITOWISH WTR SUNNY     74  34  23 W10       30.18F
ARBOR VITAE    SUNNY     77  33  20 W8G16     30.19F
WOODRUFF       SUNNY     77  33  20 W8G16     30.19F
RHINELANDER    MOSUNNY   75  35  23 SW15      30.20F
EAGLE RIVER    SUNNY     76  21  12 SW13G21   30.18F
LAND O LAKES   SUNNY     77  22  13 W7        30.19F
PHILLIPS       CLOUDY    72  40  31 SW12      30.20F
TOMAHAWK       PTSUNNY   72  38  29 CALM      30.21S
MEDFORD        PTSUNNY   72  39  30 SW7       30.21F
MERRILL        PTSUNNY   74  38  26 W7        30.22F
$$

WIZ029-030-035-036-043>047-232200-
CENTRAL WISCONSIN

CITY           SKY/WX    TMP DP  RH WIND       PRES   REMARKS
WAUSAU         PTSUNNY   74  39  28 W15       30.19F
MOSINEE        MOSUNNY   73  39  29 W3        30.22F
MARSHFIELD     PTSUNNY   75  39  27 SW7       30.20F
STEVENS POINT  MOSUNNY   74  36  24 SW3       30.21F
WAUPACA        MOSUNNY   81  34  18 SW10      30.20F
WAUTOMA        MOSUNNY   80  35  19 SW8       30.21F
WISC RAPIDS    MOSUNNY   78  33  19 SW9       30.21F
CAMP DOUGLAS   MOSUNNY   78  41  27 S7        30.20F
$$

WIZ011>013-019>022-031-037>040-048>050-232200-
NORTHEAST WISCONSIN

CITY           SKY/WX    TMP DP  RH WIND       PRES   REMARKS
ANTIGO         PTSUNNY   71  40  32 SW8       30.22F
SHAWANO        PTSUNNY   79  37  21 W9        30.20F
OCONTO         MOSUNNY   78  38  24 SW6       30.19F
STURGEON BAY   SUNNY     72  39  30 S16       30.23F
GREEN BAY      PTSUNNY   78  37  22 SW9       30.21F
MANITOWOC      MOSUNNY   67  37  33 S20       30.24F
APPLETON       MOSUNNY   75  37  25 S9        30.22F
CLINTONVILLE   PTSUNNY   79  32  18 SW7       30.20F
OSHKOSH        MOSUNNY   76  38  25 SW5       30.21F
$$

WIZ032>034-041-042-053>061-232200-
SOUTHWEST WISCONSIN

CITY           SKY/WX    TMP DP  RH WIND       PRES   REMARKS
LA CROSSE      CLOUDY    77  44  30 S14       30.19F
SPARTA         PTSUNNY   76  37  24 S8        30.21F
VIROQUA        PTSUNNY   77  41  27 SE6       30.22S
BOSCOBEL       MOSUNNY   81  43  26 SW10      30.20F
PRAIRIE DU CHI MOSUNNY   79  39  24 SE7       30.18F
PLATTEVILLE    PTSUNNY   77  43  29 S10G18    30.22F
$$

WIZ056-057-062-063-064-067-068-232200-
SOUTH CENTRAL WISCONSIN

CITY           SKY/WX    TMP DP  RH WIND       PRES   REMARKS
REEDSBURG      SUNNY     78  43  29 S10       30.20F
BARABOO/DELLS  MOSUNNY   78  36  21 SW9       30.21F
LONE ROCK      PTSUNNY   80  39  23 S8        30.20F
MINERAL POINT  SUNNY     79  36  21 S12       30.22F
MADISON        MOSUNNY   78  39  24 S9        30.21F
MIDDLETON      SUNNY     80  31  16 SW5       30.22F
WATERTOWN      SUNNY     78  42  28 SW9G17    30.21F
MONROE         SUNNY     77  43  29 SW10      30.23S
JANESVILLE     SUNNY     81  36  19 S13G18    30.22F
$$

WIZ051-052-058>065-066-070>072-232200-
SOUTHEAST WISCONSIN

CITY           SKY/WX    TMP DP  RH WIND       PRES   REMARKS
MILWAUKEE      MOSUNNY   71  42  35 SE16      30.24F
WAUKESHA       MOSUNNY   75  37  25 S7        30.24F
MILWAUKEE/TIMM MOSUNNY   75  34  22 E10       30.23F
RACINE         SUNNY     70  39  32 SE10      30.26F
BURLINGTON     MOSUNNY   79  38  22 S6        30.22F
KENOSHA        SUNNY     75  45  34 SE13      30.24F
FOND DU LAC    MOSUNNY   79  37  22 S6        30.21F
SHEBOYGAN      SUNNY     73  40  30 S12G20    30.24F
WEST BEND      MOSUNNY   77  37  24 S6G21     30.23F
JUNEAU         SUNNY     76  40  27 SW6G17    30.23F
$$

LSZ147-162-232200-
LAKE SUPERIOR

STATION/POSITION TIME  TEMP    WIND        PRES    WAVE
                       AIR SEA DIR/SP/G            HT/PER
                 (UTC) (F)     (DEG/KT/KT) (MB)    (FT/S)
W MID LAKE BUOY  2050   48 37  220/ 10/ 12   N/A     1/ 4
DEVILS ISLAND    2100   67     220/  7/  9   N/A
PORT WING        2040   60     320/  5/  9   N/A
SAXON HARBOR     2040   68      60/  7/  8   N/A
$$

LMZ867-665-643>646-232200-
LAKE MICHIGAN

STATION/POSITION TIME  TEMP    WIND        PRES    WAVE
                       AIR SEA DIR/SP/G            HT/PER
                 (UTC) (F)     (DEG/KT/KT) (MB)    (FT/S)
CHAMBERS ISLAND  2000   71     180/  7/ 14   N/A
N MID LAKE BUOY  2050   42 36  200/ 14/ 16   N/A     2/ 4
NORTHPORT PIER   2000          170/  7/ 15   N/A
SISTER BAY       2002   74     190/ 18/ 20   N/A
KEWAUNEE LAKESHO 2000   50     180/ 13/ 15   N/A
SHEBOYGAN LAKESH 2100   49     170/ 14/ 15   N/A
PORT WASHINGTON  2040   56     170/  4/  8   N/A
ATWATER BUOY     2100   50 46  150/ 10/ 12   N/A
MILWAUKEE LAKESH 2100   51     130/  9/ 10   N/A
S MID LAKE BUOY  2050   53 38  100/  6/  8   N/A     0
KENOSHA   LAKESH 2100   55     160/  7/  9   N/A
$$

TC  - TEMPERATURE IN CELSIUS
VSB - VISIBILITY IN STATUTE MILES
WCI - WIND CHILL INDEX
HX  - HEAT INDEX




USA.gov is the U.S. government's official web portal to all federal, state and local government web resources and services.